| time (UTC) | temp F | wind direction | speed MPH | gust MPH | rain 1hr in | rain 24hr in | rain mn in | humidity % | barometer mb |
| 20260901031954 | 56 | 283 | 4.0 | 6.0 | 0.00 | 0.00 | 0.00 | 80 | 1020.1 |
| 20260901030959 | 56 | 281 | 4.0 | 6.0 | 0.00 | 0.00 | 0.00 | 80 | 1020.2 |
| 20260901030003 | 56 | 281 | 4.0 | 6.0 | 0.00 | 0.00 | 0.00 | 80 | 1020.1 |
| 20260901025007 | 56 | 288 | 4.0 | 7.0 | 0.00 | 0.00 | 0.00 | 79 | 1020.2 |
| 20260901024011 | 56 | 301 | 3.0 | 5.0 | 0.00 | 0.00 | 0.00 | 78 | 1020.1 |
| 20260901023015 | 56 | 282 | 4.0 | 6.0 | 0.00 | 0.00 | 0.00 | 77 | 1020.0 |
| 20260901022020 | 57 | 278 | 3.0 | 6.0 | 0.00 | 0.00 | 0.00 | 77 | 1019.9 |
| 20260901021024 | 57 | 268 | 4.0 | 8.0 | 0.00 | 0.00 | 0.00 | 77 | 1019.8 |
| 20260901020028 | 58 | 264 | 4.0 | 7.0 | 0.00 | 0.00 | 0.00 | 77 | 1019.7 |
| 20260901015032 | 58 | 270 | 3.0 | 7.0 | 0.00 | 0.00 | 0.00 | 76 | 1019.7 |
| 20260901014037 | 58 | 280 | 2.0 | 6.0 | 0.00 | 0.00 | 0.00 | 75 | 1019.6 |
| 20260901013041 | 58 | 278 | 3.0 | 5.0 | 0.00 | 0.00 | 0.00 | 74 | 1019.5 |
| 20260901012045 | 58 | 278 | 3.0 | 6.0 | 0.00 | 0.00 | 0.00 | 74 | 1019.5 |
| 20260901011049 | 59 | 278 | 4.0 | 7.0 | 0.00 | 0.00 | 0.00 | 73 | 1019.5 |
| 20260901010053 | 59 | 271 | 3.0 | 5.0 | 0.00 | 0.00 | 0.00 | 73 | 1019.5 |
| 20260901005058 | 59 | 285 | 3.0 | 5.0 | 0.00 | 0.00 | 0.00 | 72 | 1019.5 |
| 20260901004102 | 59 | 290 | 2.0 | 6.0 | 0.00 | 0.00 | 0.00 | 70 | 1019.6 |
| 20260901003106 | 60 | 288 | 3.0 | 6.0 | 0.00 | 0.00 | 0.00 | 69 | 1019.6 |
| 20260901001115 | 62 | 267 | 3.0 | 9.0 | 0.00 | 0.00 | 0.00 | 67 | 1019.4 |
| 20260901000119 | 62 | 270 | 6.0 | 11.0 | 0.00 | 0.00 | 0.00 | 67 | 1019.4 |
| 20260831235123 | 61 | 269 | 5.0 | 10.0 | 0.00 | 0.00 | 0.00 | 67 | 1019.2 |
| 20260831234127 | 62 | 265 | 6.0 | 11.0 | 0.00 | 0.00 | 0.00 | 67 | 1018.9 |
| 20260831233132 | 62 | 257 | 5.0 | 8.0 | 0.00 | 0.00 | 0.00 | 67 | 1018.9 |
| 20260831232136 | 62 | 259 | 6.0 | 10.0 | 0.00 | 0.00 | 0.00 | 67 | 1019.0 |
| 20260831231140 | 62 | 264 | 5.0 | 7.0 | 0.00 | 0.00 | 0.00 | 67 | 1019.0 |
| 20260831230144 | 61 | 265 | 4.0 | 7.0 | 0.00 | 0.00 | 0.00 | 68 | 1018.9 |
| 20260831225149 | 61 | 277 | 3.0 | 5.0 | 0.00 | 0.00 | 0.00 | 68 | 1018.9 |
| 20260831224153 | 62 | 276 | 3.0 | 5.0 | 0.00 | 0.00 | 0.00 | 67 | 1018.8 |
| 20260831223158 | 62 | 275 | 3.0 | 6.0 | 0.00 | 0.00 | 0.00 | 67 | 1018.8 |
| 20260831222201 | 62 | 279 | 3.0 | 5.0 | 0.00 | 0.00 | 0.00 | 68 | 1018.7 |
| 20260831221206 | 62 | 288 | 3.0 | 6.0 | 0.00 | 0.00 | 0.00 | 67 | 1018.5 |
| 20260831220210 | 63 | 278 | 3.0 | 6.0 | 0.00 | 0.00 | 0.00 | 65 | 1018.5 |
| 20260831215214 | 64 | 276 | 4.0 | 10.0 | 0.00 | 0.00 | 0.00 | 63 | 1018.3 |
| 20260831214218 | 64 | 261 | 5.0 | 7.0 | 0.00 | 0.00 | 0.00 | 62 | 1018.2 |
| 20260831213223 | 64 | 257 | 5.0 | 9.0 | 0.00 | 0.00 | 0.00 | 62 | 1018.0 |
| 20260831212227 | 65 | 270 | 5.0 | 8.0 | 0.00 | 0.00 | 0.00 | 62 | 1018.0 |
| 20260831211231 | 65 | 254 | 5.0 | 8.0 | 0.00 | 0.00 | 0.00 | 62 | 1017.8 |
| 20260831210235 | 64 | 253 | 4.0 | 7.0 | 0.00 | 0.00 | 0.00 | 63 | 1017.9 |
| 20260831205239 | 65 | 252 | 4.0 | 7.0 | 0.00 | 0.00 | 0.00 | 62 | 1017.9 |
| 20260831204244 | 65 | 250 | 4.0 | 6.0 | 0.00 | 0.00 | 0.00 | 62 | 1017.8 |
| 20260831203248 | 65 | 251 | 4.0 | 6.0 | 0.00 | 0.00 | 0.00 | 61 | 1017.6 |
| 20260831202252 | 65 | 247 | 4.0 | 8.0 | 0.00 | 0.00 | 0.00 | 61 | 1017.5 |
| 20260831201256 | 65 | 248 | 3.0 | 5.0 | 0.00 | 0.00 | 0.00 | 62 | 1017.4 |
| 20260831200300 | 64 | 257 | 4.0 | 8.0 | 0.00 | 0.00 | 0.00 | 63 | 1017.4 |
| 20260831195306 | 64 | 280 | 5.0 | 7.0 | 0.00 | 0.00 | 0.00 | 64 | 1017.4 |
| 20260831194309 | 63 | 287 | 4.0 | 7.0 | 0.00 | 0.00 | 0.00 | 64 | 1017.3 |
| 20260831193313 | 63 | 298 | 2.0 | 3.0 | 0.00 | 0.00 | 0.00 | 63 | 1017.4 |
| 20260831192317 | 64 | 294 | 2.0 | 5.0 | 0.00 | 0.00 | 0.00 | 61 | 1017.3 |
| 20260831191322 | 65 | 280 | 3.0 | 5.0 | 0.00 | 0.00 | 0.00 | 60 | 1017.3 |
| 20260831190326 | 65 | 277 | 3.0 | 5.0 | 0.00 | 0.00 | 0.00 | 59 | 1017.1 |
| 20260831185330 | 66 | 269 | 4.0 | 7.0 | 0.00 | 0.00 | 0.00 | 58 | 1017.0 |
| 20260831184334 | 67 | 270 | 5.0 | 8.0 | 0.00 | 0.00 | 0.00 | 57 | 1016.8 |
| 20260831183339 | 67 | 279 | 4.0 | 7.0 | 0.00 | 0.00 | 0.00 | 57 | 1016.8 |
| 20260831182343 | 67 | 271 | 5.0 | 8.0 | 0.00 | 0.00 | 0.00 | 57 | 1016.7 |
| 20260831181347 | 67 | 272 | 5.0 | 11.0 | 0.00 | 0.00 | 0.00 | 57 | 1016.6 |
| 20260831180351 | 68 | 271 | 4.0 | 8.0 | 0.00 | 0.00 | 0.00 | 56 | 1016.4 |
| 20260831175356 | 68 | 267 | 4.0 | 7.0 | 0.00 | 0.00 | 0.00 | 55 | 1016.4 |
| 20260831174400 | 69 | 270 | 4.0 | 6.0 | 0.00 | 0.00 | 0.00 | 54 | 1016.3 |
| 20260831173404 | 70 | 275 | 4.0 | 8.0 | 0.00 | 0.00 | 0.00 | 53 | 1016.2 |
| 20260831172408 | 70 | 274 | 3.0 | 5.0 | 0.00 | 0.00 | 0.00 | 51 | 1016.1 |
| 20260831171413 | 71 | 269 | 4.0 | 7.0 | 0.00 | 0.00 | 0.00 | 50 | 1016.1 |
| 20260831170417 | 73 | 269 | 4.0 | 7.0 | 0.00 | 0.00 | 0.00 | 48 | 1016.0 |
| 20260831165421 | 74 | 267 | 5.0 | 8.0 | 0.00 | 0.00 | 0.00 | 47 | 1015.9 |
| 20260831164426 | 76 | 262 | 5.0 | 9.0 | 0.00 | 0.00 | 0.00 | 45 | 1016.0 |
| 20260831163430 | 77 | 256 | 5.0 | 8.0 | 0.00 | 0.00 | 0.00 | 45 | 1016.0 |
| 20260831162434 | 77 | 257 | 4.0 | 10.0 | 0.00 | 0.00 | 0.00 | 45 | 1016.0 |
| 20260831160442 | 77 | 257 | 3.0 | 7.0 | 0.00 | 0.00 | 0.00 | 47 | 1016.1 |
| 20260831155447 | 78 | 270 | 3.0 | 7.0 | 0.00 | 0.00 | 0.00 | 45 | 1016.1 |
| 20260831154451 | 80 | 273 | 3.0 | 9.0 | 0.00 | 0.00 | 0.00 | 43 | 1016.1 |
| 20260831153455 | 81 | 269 | 3.0 | 8.0 | 0.00 | 0.00 | 0.00 | 44 | 1016.1 |
| 20260831152459 | 81 | 262 | 4.0 | 11.0 | 0.00 | 0.00 | 0.00 | 43 | 1016.2 |
| 20260831151504 | 81 | 263 | 4.0 | 10.0 | 0.00 | 0.00 | 0.00 | 43 | 1016.3 |
| 20260831150508 | 81 | 277 | 5.0 | 10.0 | 0.00 | 0.00 | 0.00 | 44 | 1016.4 |
| 20260831145512 | 82 | 261 | 3.0 | 8.0 | 0.00 | 0.00 | 0.00 | 41 | 1016.4 |
| 20260831144516 | 81 | 257 | 4.0 | 8.0 | 0.00 | 0.00 | 0.00 | 43 | 1016.5 |
| 20260831143521 | 79 | 274 | 4.0 | 10.0 | 0.00 | 0.00 | 0.00 | 44 | 1016.6 |
| 20260831142525 | 82 | 274 | 5.0 | 8.0 | 0.00 | 0.00 | 0.00 | 43 | 1016.6 |
| 20260831141529 | 83 | 272 | 5.0 | 8.0 | 0.00 | 0.00 | 0.00 | 42 | 1016.6 |
| 20260831140533 | 82 | 276 | 5.0 | 12.0 | 0.00 | 0.00 | 0.00 | 42 | 1016.6 |
| 20260831135537 | 82 | 266 | 5.0 | 11.0 | 0.00 | 0.00 | 0.00 | 41 | 1016.6 |
| 20260831134542 | 82 | 273 | 6.0 | 13.0 | 0.00 | 0.00 | 0.00 | 42 | 1016.5 |
| 20260831133546 | 82 | 273 | 6.0 | 12.0 | 0.00 | 0.00 | 0.00 | 43 | 1016.5 |
| 20260831132550 | 79 | 269 | 7.0 | 16.0 | 0.00 | 0.00 | 0.00 | 46 | 1016.6 |
| 20260831131554 | 83 | 257 | 6.0 | 16.0 | 0.00 | 0.00 | 0.00 | 41 | 1016.6 |
| 20260831130558 | 83 | 265 | 5.0 | 13.0 | 0.00 | 0.00 | 0.00 | 46 | 1016.7 |
| 20260831125603 | 82 | 266 | 6.0 | 11.0 | 0.00 | 0.00 | 0.00 | 45 | 1016.7 |
| 20260831124607 | 82 | 263 | 6.0 | 15.0 | 0.00 | 0.00 | 0.00 | 45 | 1016.8 |
| 20260831123611 | 81 | 265 | 6.0 | 12.0 | 0.00 | 0.00 | 0.00 | 47 | 1016.7 |
| 20260831122615 | 80 | 259 | 7.0 | 19.0 | 0.00 | 0.00 | 0.00 | 49 | 1016.7 |
| 20260831121620 | 79 | 260 | 6.0 | 13.0 | 0.00 | 0.00 | 0.00 | 54 | 1016.6 |
| 20260831120624 | 80 | 263 | 6.0 | 10.0 | 0.00 | 0.00 | 0.00 | 53 | 1016.7 |
| 20260831115628 | 79 | 265 | 7.0 | 12.0 | 0.00 | 0.00 | 0.00 | 53 | 1016.6 |
| 20260831114632 | 79 | 258 | 5.0 | 14.0 | 0.00 | 0.00 | 0.00 | 56 | 1016.7 |
| 20260831113636 | 79 | 246 | 5.0 | 10.0 | 0.00 | 0.00 | 0.00 | 58 | 1016.7 |
| 20260831112641 | 78 | 253 | 5.0 | 13.0 | 0.00 | 0.00 | 0.00 | 64 | 1016.7 |
| 20260831111645 | 75 | 236 | 5.0 | 12.0 | 0.00 | 0.00 | 0.00 | 71 | 1016.9 |
| 20260831110649 | 74 | 247 | 6.0 | 10.0 | 0.00 | 0.00 | 0.00 | 71 | 1016.9 |
| 20260831103702 | 68 | 233 | 4.0 | 8.0 | 0.00 | 0.00 | 0.00 | 83 | 1017.1 |
| 20260831102706 | 69 | 222 | 5.0 | 11.0 | 0.00 | 0.00 | 0.00 | 79 | 1017.1 |
| 20260831101710 | 70 | 227 | 6.0 | 12.0 | 0.00 | 0.00 | 0.00 | 79 | 1017.1 |
| 20260831100714 | 69 | 231 | 6.0 | 10.0 | 0.00 | 0.00 | 0.00 | 82 | 1017.1 |
| 20260831095719 | 67 | 227 | 5.0 | 10.0 | 0.00 | 0.00 | 0.00 | 86 | 1017.1 |
| 20260831094723 | 65 | 192 | 5.0 | 10.0 | 0.00 | 0.00 | 0.00 | 89 | 1017.3 |
| 20260831093727 | 65 | 178 | 5.0 | 8.0 | 0.00 | 0.00 | 0.00 | 91 | 1017.2 |
| 20260831092731 | 64 | 169 | 4.0 | 6.0 | 0.00 | 0.00 | 0.00 | 90 | 1017.2 |
| 20260831091736 | 63 | 179 | 5.0 | 7.0 | 0.00 | 0.00 | 0.00 | 88 | 1017.1 |
| 20260831090740 | 63 | 169 | 5.0 | 7.0 | 0.00 | 0.00 | 0.00 | 89 | 1017.1 |
| 20260831085744 | 63 | 180 | 6.0 | 8.0 | 0.00 | 0.00 | 0.00 | 89 | 1017.0 |
| 20260831084749 | 62 | 178 | 6.0 | 8.0 | 0.00 | 0.00 | 0.00 | 90 | 1016.9 |
| 20260831083753 | 62 | 178 | 5.0 | 6.0 | 0.00 | 0.00 | 0.00 | 90 | 1016.8 |
| 20260831082757 | 62 | 165 | 4.0 | 7.0 | 0.00 | 0.00 | 0.00 | 89 | 1016.6 |
| 20260831081801 | 61 | 145 | 5.0 | 6.0 | 0.00 | 0.00 | 0.00 | 91 | 1016.7 |
| 20260831080806 | 61 | 154 | 4.0 | 6.0 | 0.00 | 0.00 | 0.00 | 92 | 1016.6 |
| 20260831075810 | 60 | 152 | 3.0 | 4.0 | 0.00 | 0.00 | 0.00 | 91 | 1016.7 |
| 20260831074814 | 60 | 153 | 2.0 | 4.0 | 0.00 | 0.00 | 0.00 | 91 | 1016.5 |
| 20260831073818 | 59 | 112 | 1.0 | 2.0 | 0.00 | 0.00 | 0.00 | 91 | 1016.4 |
| 20260831072823 | 59 | 80 | 1.0 | 4.0 | 0.00 | 0.00 | 0.00 | 89 | 1016.3 |
| 20260831071827 | 59 | 143 | 1.0 | 2.0 | 0.00 | 0.00 | 0.00 | 88 | 1016.4 |
| 20260831070831 | 59 | 299 | 3.0 | 5.0 | 0.00 | 0.00 | 0.00 | 87 | 1016.4 |
| 20260831065835 | 59 | 328 | 2.0 | 4.0 | 0.00 | 0.00 | 0.00 | 85 | 1016.3 |
| 20260831064840 | 59 | 310 | 1.0 | 4.0 | 0.00 | 0.00 | 0.00 | 86 | 1016.6 |
| 20260831063844 | 59 | 315 | 4.0 | 7.0 | 0.00 | 0.00 | 0.00 | 82 | 1016.9 |
| 20260831061852 | 60 | 290 | 7.0 | 14.0 | 0.00 | 0.00 | 0.00 | 79 | 1016.8 |
| 20260831060857 | 62 | 117 | 1.0 | 4.0 | 0.00 | 0.00 | 0.00 | 73 | 1015.8 |
| 20260831055901 | 62 | 83 | 2.0 | 4.0 | 0.00 | 0.00 | 0.00 | 73 | 1015.4 |
| 20260831054905 | 62 | 84 | 2.0 | 5.0 | 0.00 | 0.00 | 0.00 | 73 | 1015.2 |
| 20260831053909 | 62 | 90 | 3.0 | 4.0 | 0.00 | 0.00 | 0.00 | 73 | 1015.2 |
| 20260831052914 | 64 | 87 | 4.0 | 5.0 | 0.00 | 0.00 | 0.00 | 70 | 1015.3 |
| 20260831051918 | 64 | 46 | 2.0 | 4.0 | 0.00 | 0.00 | 0.00 | 69 | 1015.1 |
| 20260831050922 | 64 | 118 | 1.0 | 2.0 | 0.00 | 0.00 | 0.00 | 69 | 1015.2 |
| 20260831045926 | 64 | 125 | 1.0 | 2.0 | 0.00 | 0.00 | 0.00 | 69 | 1015.2 |
| 20260831044931 | 63 | 37 | 1.0 | 2.0 | 0.00 | 0.00 | 0.00 | 69 | 1015.2 |
| 20260831043935 | 63 | 65 | 1.0 | 1.0 | 0.00 | 0.00 | 0.00 | 70 | 1015.3 |
| 20260831042939 | 63 | 127 | 2.0 | 2.0 | 0.00 | 0.00 | 0.00 | 70 | 1015.4 |
| 20260831041944 | 62 | 130 | 2.0 | 3.0 | 0.00 | 0.00 | 0.00 | 70 | 1015.3 |
| 20260831040948 | 61 | 135 | 0.0 | 2.0 | 0.00 | 0.00 | 0.00 | 72 | 1015.3 |
| 20260831035952 | 60 | 135 | 0.0 | 0.0 | 0.00 | 0.00 | 0.00 | 74 | 1015.4 |
| 20260831034956 | 60 | 145 | 0.0 | 1.0 | 0.00 | 0.00 | 0.00 | 73 | 1015.5 |
| 20260831034000 | 61 | 171 | 1.0 | 2.0 | 0.00 | 0.00 | 0.00 | 74 | 1015.5 |
| 20260831033005 | 61 | 191 | 1.0 | 2.0 | 0.00 | 0.00 | 0.00 | 73 | 1015.5 |